Sandspit, British Columbia

12:18 AM PDT on April 27, 2018 (GMT -0700)
Sandspit

Weather History for CYZP - November, 2013

Change the Weather History Date:

Saturday, November 30, 2013

  Actual Average Record
Temperature  
Mean Temperature 46 °F -  
Max Temperature 49 °F 43 °F 55 °F (2008)
Min Temperature 42 °F 34 °F 28 °F (2001)
Degree Days  
Heating Degree Days 20    
Moisture  
Dew Point 44 °F    
Average Humidity 94    
Maximum Humidity 100    
Minimum Humidity 82    
Precipitation  
Precipitation 0.08 in 0.23 in - ()
Sea Level Pressure  
Sea Level Pressure 29.90 in    
Wind  
Wind Speed 9 mph ()    
Max Wind Speed 24 mph    
Max Gust Speed 29 mph    
Visibility 6.9 miles    
Events Rain    
Averages and records for this station are not official NWS values.
T = Trace of Precipitation, MM = Missing Value Source: Averaged Metar Reports

Daily Weather History Graph

Daily Weather History Graph

Search for Another Location

Airport or City:

Astronomy

Nov. 30, 2013 Rise Set
Actual Time 8:38 AM PST 4:33 PM PST
Civil Twilight 7:57 AM PST 5:14 PM PST
Nautical Twilight 7:12 AM PST 5:59 PM PST
Astronomical Twilight 6:30 AM PST 6:40 PM PST
Moon 5:38 AM PST (11/30) 3:18 PM PST (11/30)
Length of Visible Light 9h 17m
Length of Day
7h 55m
Waning Crescent, 6% of the Moon is Illuminated
Nov 30
Waning Crescent
Dec 2
New
Dec 9
First Quarter
Dec 17
Full
Dec 25
Last Quarter

Hourly Weather History & Observations

Time (PST) Temp. Windchill Dew Point Humidity Pressure Visibility Wind Dir Wind Speed Gust Speed Precip Events Conditions
12:00 AM 48.2 °F - 44.6 °F 87% 30.03 in 9.0 mi West 12.7 mph - N/A   Overcast
12:33 AM 46.4 °F 40.7 °F 44.6 °F 93% 30.04 in 7.0 mi West 12.7 mph - N/A Rain Light Rain
1:00 AM 47 °F - 44 °F 85% 30.04 in - SW 1.2 mph - -  
1:00 AM 46.4 °F 41.1 °F 44.6 °F 93% 30.04 in 9.0 mi West 11.5 mph - N/A   Overcast
1:43 AM 46.4 °F 42.4 °F 44.6 °F 93% 30.05 in 9.0 mi West 8.1 mph - N/A   Overcast
2:00 AM 46.4 °F 41.9 °F 44.6 °F 93% 30.06 in 9.0 mi NNE 9.2 mph - N/A   Overcast
2:07 AM 46.4 °F 42.4 °F 44.6 °F 93% 30.06 in 7.0 mi NNE 8.1 mph - N/A   Overcast
2:20 AM 46.4 °F 42.9 °F 44.6 °F 93% 30.07 in 5.0 mi North 6.9 mph - N/A   Overcast
2:42 AM 44.6 °F 39.2 °F 44.6 °F 100% 30.07 in 5.0 mi NNE 10.4 mph - N/A   Overcast
2:44 AM 44.6 °F 38.8 °F 44.6 °F 100% 30.07 in 6.0 mi NNE 11.5 mph - N/A   Overcast
3:00 AM 44.6 °F 38.4 °F 42.8 °F 93% 30.06 in 7.0 mi NNE 12.7 mph - N/A   Overcast
4:00 AM 43 °F - 42 °F 95% 30.06 in - NNE 4.6 mph - -  
4:00 AM 44.6 °F 40.2 °F 42.8 °F 93% 30.07 in 9.0 mi NNE 8.1 mph - N/A   Overcast
4:09 AM 44.6 °F 40.7 °F 42.8 °F 93% 30.07 in 9.0 mi NNE 6.9 mph - N/A   Overcast
4:38 AM 44.6 °F 40.2 °F 42.8 °F 93% 30.07 in 5.0 mi NE 8.1 mph - N/A   Overcast
4:49 AM 44.6 °F 40.2 °F 42.8 °F 93% 30.07 in 4.0 mi NE 8.1 mph - N/A Rain Light Rain
5:00 AM 44.6 °F 41.4 °F 42.8 °F 93% 30.06 in 5.0 mi ENE 5.8 mph - N/A Rain Light Rain
5:01 AM 44.6 °F 41.4 °F 42.8 °F 93% 30.06 in 6.0 mi NE 5.8 mph - N/A Rain Light Rain
5:02 AM 44.6 °F 40.7 °F 42.8 °F 93% 30.06 in 5.0 mi NE 6.9 mph - N/A   Overcast
5:06 AM 44.6 °F 40.7 °F 42.8 °F 93% 30.06 in 4.0 mi NE 6.9 mph - N/A Rain Light Rain
5:42 AM 42.8 °F 37.5 °F 42.8 °F 100% 30.06 in 2.5 mi ENE 9.2 mph - N/A Rain Light Rain
5:48 AM 42.8 °F 37.5 °F 42.8 °F 100% 30.06 in 1.8 mi ENE 9.2 mph - N/A Rain Light Rain
6:00 AM 42.8 °F 37.5 °F 42.8 °F 100% 30.05 in 1.2 mi ENE 9.2 mph - N/A Rain Light Rain
6:37 AM 42.8 °F 38.0 °F 42.8 °F 100% 30.04 in 2.0 mi East 8.1 mph - N/A Rain Light Rain
6:53 AM 42.8 °F 37.5 °F 42.8 °F 100% 30.04 in 1.8 mi East 9.2 mph - N/A Rain Light Rain
7:00 AM 43 °F - 42 °F 95% 30.03 in - East 6.9 mph - -  
7:00 AM 42.8 °F 37.0 °F 42.8 °F 100% 30.04 in 1.5 mi East 10.4 mph - N/A Rain Light Rain
7:14 AM 42.8 °F 37.5 °F 42.8 °F 100% 30.04 in 2.0 mi ESE 9.2 mph - N/A Rain Light Rain
7:26 AM 42.8 °F 37.0 °F 42.8 °F 100% 30.04 in 3.0 mi ESE 10.4 mph - N/A Rain Light Rain
7:51 AM 44.6 °F 38.4 °F 42.8 °F 93% 30.03 in 6.0 mi ESE 12.7 mph - N/A Rain Light Rain
8:00 AM 44.6 °F 38.8 °F 42.8 °F 93% 30.03 in 9.0 mi SE 11.5 mph - N/A Rain Light Rain
8:23 AM 44.6 °F 38.4 °F 42.8 °F 93% 30.01 in 5.0 mi SE 12.7 mph - N/A Rain Light Rain
8:33 AM 44.6 °F 38.4 °F 42.8 °F 93% 30.01 in 6.0 mi SE 12.7 mph - N/A Rain Light Rain
8:39 AM 44.6 °F 38.8 °F 42.8 °F 93% 30.01 in 5.0 mi SE 11.5 mph - N/A Rain Light Rain
8:49 AM 44.6 °F 38.1 °F 44.6 °F 100% 30.00 in 6.0 mi SE 13.8 mph - N/A Rain Light Rain
9:00 AM 44.6 °F 37.8 °F 44.6 °F 100% 29.99 in 6.0 mi SE 15.0 mph - N/A Rain Light Rain
9:01 AM 44.6 °F 38.1 °F 44.6 °F 100% 29.99 in 5.0 mi SE 13.8 mph - N/A Rain Light Rain
9:02 AM 44.6 °F 38.1 °F 44.6 °F 100% 29.99 in 5.0 mi SE 13.8 mph - N/A   Overcast
9:11 AM 44.6 °F 38.4 °F 44.6 °F 100% 30.00 in 4.0 mi SE 12.7 mph - N/A Rain Light Rain
9:14 AM 44.6 °F 38.8 °F 44.6 °F 100% 29.99 in 6.0 mi SE 11.5 mph 17.3 mph N/A Rain Light Rain
9:23 AM 44.6 °F 39.7 °F 44.6 °F 100% 29.99 in 6.0 mi SSE 9.2 mph - N/A   Overcast
9:26 AM 44.6 °F 40.2 °F 44.6 °F 100% 29.99 in 7.0 mi SSE 8.1 mph - N/A Rain Light Rain
10:00 AM 45 °F - 44 °F 94% 29.96 in - South 3.5 mph - -  
10:00 AM 44.6 °F 41.4 °F 44.6 °F 100% 29.98 in 9.0 mi South 5.8 mph - N/A Rain Light Rain
10:21 AM 44.6 °F 42.2 °F 44.6 °F 100% 29.96 in 9.0 mi South 4.6 mph - N/A Rain Light Rain
10:50 AM 44.6 °F 40.7 °F 44.6 °F 100% 29.95 in 9.0 mi South 6.9 mph - N/A   Mostly Cloudy
11:00 AM 46.4 °F 42.9 °F 44.6 °F 93% 29.94 in 9.0 mi South 6.9 mph - N/A   Mostly Cloudy
12:00 PM 46.4 °F 42.4 °F 44.6 °F 93% 29.90 in 9.0 mi South 8.1 mph - N/A   Partly Cloudy
12:31 PM 46.4 °F 43.5 °F 44.6 °F 93% 29.88 in 9.0 mi South 5.8 mph - N/A Rain Light Rain
1:00 PM 47 °F - 45 °F 89% 29.84 in - ESE 4.6 mph - -  
1:00 PM 46.4 °F 42.9 °F 44.6 °F 93% 29.85 in 9.0 mi ESE 6.9 mph - N/A Rain Light Rain
1:25 PM 46.4 °F 42.4 °F 44.6 °F 93% 29.83 in 9.0 mi ESE 8.1 mph - N/A   Overcast
1:51 PM 46.4 °F 41.9 °F 44.6 °F 93% 29.81 in 9.0 mi SSE 9.2 mph - N/A Rain Light Rain
2:00 PM 46.4 °F 41.5 °F 44.6 °F 93% 29.81 in 8.0 mi SSE 10.4 mph - N/A Rain Light Rain
2:44 PM 46.4 °F 41.1 °F 46.4 °F 100% 29.77 in 9.0 mi SSE 11.5 mph - N/A   Overcast
2:59 PM 46.4 °F 40.7 °F 46.4 °F 100% 29.75 in 9.0 mi SSE 12.7 mph - N/A Rain Light Rain
3:00 PM 46.4 °F 40.7 °F 46.4 °F 100% 29.75 in 9.0 mi SSE 12.7 mph - N/A Rain Light Rain
3:15 PM 48.2 °F - 46.4 °F 93% 29.74 in 9.0 mi SSE 13.8 mph - N/A   Overcast
3:46 PM 48.2 °F - 46.4 °F 93% 29.74 in 9.0 mi South 8.1 mph - N/A Rain Light Rain
3:51 PM 46.4 °F 45.2 °F 46.4 °F 100% 29.73 in 5.0 mi SSE 3.5 mph - N/A Rain Light Rain
4:00 PM 47 °F - 46 °F 95% 29.71 in - SSE 3.5 mph - -  
4:00 PM 48.2 °F - 46.4 °F 93% 29.72 in 6.0 mi SSE 5.8 mph - N/A Rain Light Rain
4:15 PM 50.0 °F - 46.4 °F 87% 29.71 in 9.0 mi WSW 10.4 mph - N/A   Overcast
4:39 PM 48.2 °F - 46.4 °F 93% 29.70 in 9.0 mi SW 12.7 mph 19.6 mph N/A Rain Light Rain
5:00 PM 50.0 °F - 46.4 °F 87% 29.69 in 9.0 mi WSW 16.1 mph 23.0 mph N/A Rain Light Rain
5:10 PM 48.2 °F - 46.4 °F 93% 29.70 in 9.0 mi WSW 17.3 mph - N/A   Overcast
5:11 PM 48.2 °F - 46.4 °F 93% 29.70 in 9.0 mi WSW 17.3 mph - N/A Rain Light Rain
5:38 PM 50.0 °F - 46.4 °F 87% 29.68 in 9.0 mi SSW 8.1 mph 17.3 mph N/A   Overcast
6:00 PM 50.0 °F - 44.6 °F 82% 29.67 in 9.0 mi SW 10.4 mph 17.3 mph N/A   Scattered Clouds
6:15 PM 50.0 °F - 44.6 °F 82% 29.66 in 9.0 mi WSW 12.7 mph 19.6 mph N/A Rain Light Rain
7:00 PM 49 °F - 45 °F 83% 29.65 in - SW 3.5 mph - -  
7:00 PM 48.2 °F - 44.6 °F 87% 29.65 in 9.0 mi SW 15.0 mph - N/A Rain Light Rain
8:00 PM 48.2 °F - 46.4 °F 93% 29.65 in 9.0 mi WSW 19.6 mph - N/A Rain Light Rain
9:00 PM 46.4 °F 39.0 °F 42.8 °F 87% 29.64 in 9.0 mi WSW 19.6 mph 26.5 mph N/A Rain Light Rain
9:47 PM 44.6 °F 38.8 °F 41.0 °F 87% 29.68 in 8.0 mi North 11.5 mph 24.2 mph N/A Rain Light Rain
9:49 PM 42.8 °F 33.5 °F 41.0 °F 93% 29.68 in 7.0 mi North 23.0 mph 28.8 mph N/A Rain Rain
10:00 PM 42 °F - 39 °F 87% 29.68 in - NNW 10.4 mph - -  
10:00 PM 42.8 °F 33.3 °F 41.0 °F 93% 29.68 in 8.0 mi NNW 24.2 mph - N/A Rain Light Rain
10:04 PM 42.8 °F 34.0 °F 41.0 °F 93% 29.68 in 6.0 mi NNW 20.7 mph 26.5 mph N/A Rain Light Rain
10:26 PM 42.8 °F 35.1 °F 39.2 °F 87% 29.69 in 9.0 mi NNW 16.1 mph - N/A   Overcast
11:00 PM 42.8 °F 36.2 °F 39.2 °F 87% 29.70 in 9.0 mi WNW 12.7 mph - N/A   Mostly Cloudy